When you browse on this site, cookies collect data to enhance your experience and personalize the content and advertising you see.
Visit our Privacy Policy to learn more. By continuing to use the site, you agree to this use of cookies and data.
EN

Hourly Weather Seesen

Today, 9 August, Sunday

Time Temperature Precipitation Wind Pressure Humidity
00:00 +24°C° 0 mm 1 mps 746 mmHg 64%
01:00 +23°C° 0 mm 1 mps 746 mmHg 67%
02:00 +21°C° 0 mm 0 mps 746 mmHg 68%
03:00 +21°C° 0 mm 0 mps 745 mmHg 70%
04:00 +20°C° 0 mm 0 mps 745 mmHg 72%
05:00 +21°C° 0 mm 0 mps 746 mmHg 70%
06:00 +22°C° 0 mm 0 mps 746 mmHg 69%
07:00 +25°C° 0 mm 1 mps 746 mmHg 67%
08:00 +27°C° 0 mm 1 mps 746 mmHg 62%
09:00 +28°C° 0 mm 1 mps 746 mmHg 57%
10:00 +30°C° 0 mm 1 mps 746 mmHg 53%
11:00 +31°C° 0 mm 2 mps 746 mmHg 50%
12:00 +32°C° 0 mm 2 mps 746 mmHg 48%
13:00 +34°C° 0 mm 2 mps 745 mmHg 46%
14:00 +32°C° 0 mm 2 mps 745 mmHg 47%
15:00 +33°C° 0 mm 3 mps 745 mmHg 48%
16:00 +33°C° 0 mm 3 mps 745 mmHg 49%
17:00 +31°C° 0 mm 3 mps 745 mmHg 54%
18:00 +29°C° 0 mm 2 mps 744 mmHg 59%
19:00 +28°C° 0 mm 2 mps 744 mmHg 64%
20:00 +27°C° 0.1 mm 2 mps 744 mmHg 68%
21:00 +25°C° 0.1 mm 1 mps 745 mmHg 71%
22:00 +24°C° 0.1 mm 1 mps 745 mmHg 75%
23:00 +23°C° 0.2 mm 1 mps 745 mmHg 80%

Tomorrow, 10 August, Monday

Time Temperature Precipitation Wind Pressure Humidity
00:00 +23°C° 0.2 mm 1 mps 745 mmHg 84%
01:00 +22°C° 0.2 mm 1 mps 744 mmHg 88%
02:00 +22°C° 0 mm 1 mps 744 mmHg 88%
03:00 +22°C° 0 mm 1 mps 744 mmHg 88%
04:00 +21°C° 0 mm 1 mps 744 mmHg 88%
05:00 +22°C° 0 mm 1 mps 744 mmHg 85%
06:00 +23°C° 0 mm 1 mps 744 mmHg 82%
07:00 +24°C° 0 mm 1 mps 744 mmHg 79%
08:00 +26°C° 0 mm 1 mps 744 mmHg 72%
09:00 +28°C° 0 mm 2 mps 745 mmHg 65%
10:00 +29°C° 0 mm 2 mps 745 mmHg 58%
11:00 +30°C° 0 mm 2 mps 745 mmHg 54%
12:00 +31°C° 0 mm 3 mps 744 mmHg 49%
13:00 +33°C° 0 mm 3 mps 744 mmHg 45%
14:00 +33°C° 0 mm 3 mps 744 mmHg 45%
15:00 +33°C° 0 mm 3 mps 744 mmHg 45%
16:00 +33°C° 0 mm 3 mps 744 mmHg 46%
17:00 +31°C° 0 mm 3 mps 744 mmHg 51%
18:00 +29°C° 0 mm 2 mps 744 mmHg 56%
19:00 +28°C° 0 mm 2 mps 744 mmHg 61%
20:00 +27°C° 0.2 mm 2 mps 744 mmHg 64%
21:00 +25°C° 0.2 mm 2 mps 744 mmHg 68%
22:00 +24°C° 0.2 mm 2 mps 745 mmHg 71%
23:00 +24°C° 0.1 mm 2 mps 745 mmHg 73%

Day after tomorrow, 11 August, Tuesday

Time Temperature Precipitation Wind Pressure Humidity
00:00 +23°C° 0.1 mm 2 mps 745 mmHg 76%
01:00 +22°C° 0.1 mm 1 mps 745 mmHg 78%
02:00 +22°C° 0 mm 1 mps 745 mmHg 80%
03:00 +22°C° 0 mm 1 mps 745 mmHg 81%
04:00 +22°C° 0 mm 1 mps 744 mmHg 82%
05:00 +22°C° 0 mm 1 mps 745 mmHg 81%
06:00 +23°C° 0 mm 1 mps 745 mmHg 79%
07:00 +24°C° 0 mm 1 mps 745 mmHg 78%
08:00 +25°C° 0 mm 2 mps 745 mmHg 71%
09:00 +27°C° 0 mm 3 mps 745 mmHg 65%
10:00 +29°C° 0 mm 4 mps 745 mmHg 59%
11:00 +29°C° 0.1 mm 4 mps 745 mmHg 56%
12:00 +30°C° 0.1 mm 4 mps 745 mmHg 53%
13:00 +32°C° 0.1 mm 4 mps 745 mmHg 50%
14:00 +32°C° 0 mm 4 mps 745 mmHg 49%
15:00 +32°C° 0 mm 4 mps 745 mmHg 49%
16:00 +32°C° 0 mm 4 mps 745 mmHg 48%
17:00 +30°C° 0 mm 4 mps 745 mmHg 53%
18:00 +28°C° 0 mm 3 mps 745 mmHg 58%
19:00 +27°C° 0 mm 3 mps 745 mmHg 63%
20:00 +26°C° 0 mm 3 mps 745 mmHg 65%
21:00 +25°C° 0 mm 3 mps 745 mmHg 67%
22:00 +23°C° 0 mm 2 mps 745 mmHg 69%
23:00 +23°C° 0 mm 2 mps 745 mmHg 71%

12 August, Wednesday

Time Temperature Precipitation Wind Pressure Humidity
00:00 +21°C° 0 mm 2 mps 745 mmHg 74%
01:00 +21°C° 0 mm 2 mps 745 mmHg 77%
02:00 +20°C° 0 mm 2 mps 745 mmHg 78%
03:00 +20°C° 0 mm 2 mps 745 mmHg 79%
04:00 +19°C° 0 mm 2 mps 745 mmHg 81%
05:00 +20°C° 0 mm 2 mps 745 mmHg 78%
06:00 +21°C° 0 mm 2 mps 745 mmHg 74%
07:00 +22°C° 0 mm 3 mps 745 mmHg 71%
08:00 +25°C° 0 mm 3 mps 745 mmHg 65%
09:00 +27°C° 0 mm 4 mps 745 mmHg 59%
10:00 +28°C° 0 mm 5 mps 745 mmHg 52%
11:00 +29°C° 0 mm 5 mps 745 mmHg 50%
12:00 +30°C° 0 mm 5 mps 745 mmHg 47%
13:00 +30°C° 0 mm 5 mps 745 mmHg 45%
14:00 +30°C° 0 mm 5 mps 744 mmHg 44%
15:00 +30°C° 0 mm 5 mps 744 mmHg 43%
16:00 +30°C° 0 mm 5 mps 744 mmHg 43%
17:00 +29°C° 0 mm 4 mps 744 mmHg 48%
18:00 +28°C° 0 mm 4 mps 744 mmHg 54%
19:00 +26°C° 0 mm 3 mps 743 mmHg 59%
20:00 +25°C° 0 mm 3 mps 743 mmHg 61%
21:00 +24°C° 0 mm 3 mps 743 mmHg 62%
22:00 +21°C° 0 mm 3 mps 744 mmHg 64%
23:00 +21°C° 0 mm 3 mps 743 mmHg 64%

13 August, Thursday

Time Temperature Precipitation Wind Pressure Humidity
00:00 +20°C° 0 mm 2 mps 743 mmHg 64%
01:00 +20°C° 0 mm 2 mps 743 mmHg 64%
02:00 +19°C° 0 mm 2 mps 743 mmHg 67%
03:00 +19°C° 0 mm 2 mps 743 mmHg 70%
04:00 +18°C° 0 mm 2 mps 742 mmHg 72%
05:00 +19°C° 0 mm 2 mps 742 mmHg 71%
06:00 +20°C° 0 mm 2 mps 742 mmHg 70%
07:00 +21°C° 0 mm 2 mps 742 mmHg 69%
08:00 +24°C° 0 mm 3 mps 742 mmHg 63%
09:00 +26°C° 0 mm 3 mps 742 mmHg 57%
10:00 +28°C° 0 mm 4 mps 742 mmHg 51%
11:00 +29°C° 0 mm 4 mps 742 mmHg 48%
12:00 +30°C° 0 mm 4 mps 742 mmHg 46%
13:00 +32°C° 0 mm 4 mps 742 mmHg 43%
14:00 +31°C° 0 mm 3 mps 741 mmHg 42%
15:00 +31°C° 0 mm 3 mps 741 mmHg 42%
16:00 +33°C° 0 mm 3 mps 741 mmHg 41%
17:00 +30°C° 0 mm 3 mps 741 mmHg 46%
18:00 +29°C° 0 mm 3 mps 740 mmHg 52%
19:00 +27°C° 0 mm 3 mps 740 mmHg 57%
20:00 +26°C° 0.4 mm 2 mps 740 mmHg 60%
21:00 +25°C° 0.4 mm 2 mps 741 mmHg 63%
22:00 +23°C° 0.4 mm 1 mps 741 mmHg 65%
23:00 +23°C° 0 mm 1 mps 741 mmHg 67%

14 August, Friday

Time Temperature Precipitation Wind Pressure Humidity
00:00 +22°C° 0 mm 1 mps 741 mmHg 69%
01:00 +22°C° 0 mm 1 mps 741 mmHg 70%
02:00 +21°C° 0.3 mm 1 mps 742 mmHg 78%
03:00 +21°C° 0.3 mm 1 mps 742 mmHg 86%
04:00 +20°C° 0.3 mm 1 mps 742 mmHg 93%
05:00 +20°C° 0.1 mm 2 mps 742 mmHg 92%
06:00 +20°C° 0.1 mm 2 mps 742 mmHg 91%
07:00 +21°C° 0.1 mm 3 mps 742 mmHg 91%
08:00 +21°C° 0 mm 3 mps 743 mmHg 87%
09:00 +22°C° 0 mm 3 mps 743 mmHg 83%
10:00 +22°C° 0 mm 3 mps 743 mmHg 79%
11:00 +25°C° 0.1 mm 3 mps 743 mmHg 73%
12:00 +26°C° 0.1 mm 3 mps 743 mmHg 66%
13:00 +27°C° 0.1 mm 3 mps 743 mmHg 60%
14:00 +27°C° 0.1 mm 4 mps 743 mmHg 59%
15:00 +27°C° 0.1 mm 4 mps 743 mmHg 58%
16:00 +28°C° 0.1 mm 4 mps 743 mmHg 57%
17:00 +26°C° 0.1 mm 3 mps 743 mmHg 61%
18:00 +25°C° 0.1 mm 2 mps 743 mmHg 66%
19:00 +24°C° 0.1 mm 2 mps 743 mmHg 70%
20:00 +23°C° 0.3 mm 2 mps 743 mmHg 74%
21:00 +21°C° 0.3 mm 2 mps 744 mmHg 77%
22:00 +20°C° 0.3 mm 2 mps 744 mmHg 80%
23:00 +19°C° 0.1 mm 2 mps 744 mmHg 80%
Show more